[[{"header":{"parameterUnit":"m.s-1","parameterCategory":1,"la1":30.2991,"la2":30.254,"lo1":-89.0895,"lo2":-89.0444,"dy":0.0017,"dx":0.0017,"nx":28,"ny":28,"refTime":"2023-08-31T21:00:00:Z","depth":0,"parameterNumber":2,"parameterNumberName":"U-component_of_WINDS"},"data":[0,0,0,0,0,0,0,0,0,0,0,0,0,0,0,0,0,0,0,0,0,0,0,0,0,0,0,0,0,0,0,0,0,0,0,0,0,0,0,0,0,0,0,0,0,0,0,0,0,0,0,0,0,0,0,0,0,0,0.7143,0.7143,0,0.7133,0.7132,0.7132,0.7119,0.7119,0.7119,0.7119,0.7109,0.7109,0.7109,0,0,0,0,0,0,0,0,0,0,0,0,0,0.7153,0.7153,0.7143,0.7143,0.7143,0.7133,0.7132,0.7132,0.7119,0.7119,0.7119,0.7119,0.7109,0.7109,0.7109,0,0,0,0,0,0,0,0,0,0,0,0,0,0.7146,0.7153,0.7143,0.7135,0.7135,0.7133,0.7132,0.7132,0.712,0.7119,0.7119,0.7119,0.7109,0.7109,0.7109,0.7114,0,0,0.7108,0.7108,0,0,0,0,0,0,0,0,0.7146,0.7146,0.7137,0.7136,0.7135,0.7127,0.7132,0.7126,0.712,0.7125,0.7119,0.7119,0.7115,0.7115,0.7113,0.7114,0.7113,0.7108,0.7108,0.7108,0.7108,0,0,0,0,0,0,0,0.7147,0.7146,0.7139,0.7137,0.7136,0.7132,0.7131,0.7131,0.7122,0.7125,0.7124,0.7123,0.7115,0.7113,0.7113,0.7113,0.7108,0.7108,0.7108,0.7108,0.7116,0.7116,0,0,0,0,0,0,0.7149,0.7147,0.7139,0.7139,0.714,0.7132,0.7131,0.713,0.7122,0.7121,0.7123,0.7122,0.7114,0.7113,0.7113,0.7117,0.7108,0.7108,0.7108,0.7115,0.7116,0.7116,0,0,0,0,0,0,0.7149,0.7148,0.714,0.7142,0.7141,0.7133,0.7131,0.713,0.7128,0.7121,0.7119,0.7123,0.7114,0.7113,0.7113,0.7117,0.7108,0.7108,0.7115,0.7116,0.7116,0.7127,0,0,0,0,0,0,0.7149,0.7148,0.715,0.7143,0.7141,0.7141,0.7132,0.713,0.7128,0.7127,0.7121,0.7119,0.7113,0.7114,0.7113,0.7116,0.7108,0.7115,0.7115,0.7116,0.7127,0.7128,0.7129,0,0,0,0,0,0.715,0.7155,0.715,0.715,0.7143,0.7141,0.714,0.7133,0.7129,0.713,0.7125,0.7119,0.7116,0.7114,0.7113,0.7117,0.7115,0.7115,0.7116,0.7126,0.7128,0.7129,0,0,0,0,0,0,0.7164,0.7153,0.7149,0.7151,0.7147,0.7139,0.7141,0.7135,0.7133,0.7132,0.7123,0.7122,0.7123,0.712,0.7117,0.712,0.7115,0.7115,0.7123,0.7124,0.7126,0.7126,0.7108,0,0,0,0,0,0.7167,0.7166,0.7157,0.716,0.7158,0.715,0.7149,0.7143,0.7139,0.7137,0.7132,0.7128,0.7126,0.7125,0.7123,0.7126,0.7124,0.7128,0.7129,0.713,0.7131,0.7131,0.7133,0.7118,0.7118,0.7118,0,0,0.7174,0.7168,0.7168,0.7163,0.7159,0.7158,0.7149,0.7148,0.7147,0.7137,0.7137,0.7133,0.7128,0.713,0.713,0.7127,0.7134,0.7131,0.7132,0.7132,0.7132,0.7133,0.7135,0.7118,0.7118,0.7118,0,0,0.7186,0.7182,0.7183,0.7179,0.7173,0.7167,0.7168,0.716,0.7157,0.7156,0.7148,0.7147,0.7144,0.7141,0.7138,0.7147,0.7142,0.7147,0.7154,0.7154,0.7155,0.7156,0.7159,0.716,0.7147,0.7148,0.7148,0,0.7196,0.7193,0.7185,0.7184,0.7182,0.7172,0.7173,0.717,0.7163,0.7162,0.7158,0.7153,0.7149,0.7149,0.7151,0.715,0.715,0.7148,0.7156,0.7157,0.7158,0.716,0.7161,0.7148,0.7148,0.7148,0.7148,0,0.7205,0.7203,0.7205,0.7198,0.7196,0.7197,0.7188,0.7187,0.7181,0.7176,0.7175,0.717,0.7166,0.7165,0.716,0.7164,0.7162,0.7157,0.7151,0.716,0.7162,0.7162,0.7149,0.7149,0.7149,0.7148,0,0,0.7226,0.7214,0.7214,0.7211,0.7202,0.7201,0.7201,0.7196,0.7195,0.719,0.7189,0.7186,0.7181,0.7179,0.7173,0.7174,0.718,0.7169,0.7168,0.717,0.7183,0.7186,0.7187,0.7176,0.7176,0.7176,0.7183,0,0.7236,0.7235,0.7226,0.7227,0.7225,0.7215,0.7214,0.7209,0.7204,0.7201,0.7195,0.7193,0.7187,0.7185,0.7185,0.7179,0.7182,0.7179,0.7175,0.7175,0.7176,0.7188,0.7192,0.7199,0.7184,0.7184,0.7184,0,0.7248,0.7243,0.7243,0.7234,0.7233,0.7232,0.7227,0.7225,0.7218,0.7214,0.7211,0.7204,0.7203,0.7197,0.7194,0.7192,0.719,0.7187,0.7187,0.7186,0.718,0.7187,0.7201,0.7201,0.7185,0.7185,0.7185,0,0.7263,0.7256,0.7255,0.7252,0.7241,0.7241,0.7237,0.723,0.7227,0.7222,0.722,0.7216,0.7213,0.721,0.7202,0.7199,0.72,0.7194,0.7196,0.7197,0.7197,0.7197,0.721,0.7197,0.7197,0.7197,0.7197,0,0.7274,0.7275,0.7261,0.7261,0.726,0.725,0.7251,0.7245,0.7239,0.7237,0.7228,0.7226,0.7216,0.7213,0.7207,0.7206,0.7205,0.7201,0.72,0.7202,0.7202,0.72,0.7199,0.7197,0.7197,0.7197,0.7197,0,0.7291,0.7282,0.728,0.7269,0.7266,0.7266,0.7257,0.7256,0.725,0.7247,0.7246,0.7236,0.7232,0.7224,0.7218,0.7214,0.7213,0.7211,0.7215,0.7214,0.7217,0.7216,0.7228,0.7229,0.7216,0.7216,0.7216,0,0.7298,0.7298,0.7287,0.7285,0.728,0.7277,0.7273,0.7264,0.7261,0.7253,0.7252,0.7247,0.7243,0.7237,0.7229,0.7224,0.7221,0.7225,0.722,0.7222,0.722,0.722,0.722,0.7227,0.7227,0.7227,0.7227,0,0.7313,0.7308,0.7304,0.7297,0.7294,0.7288,0.7283,0.7281,0.727,0.7267,0.7262,0.7259,0.7252,0.7247,0.724,0.7236,0.7229,0.7229,0.7229,0.7231,0.7233,0.7231,0.7218,0.7228,0.7228,0.7228,0.7228,0.7228,0.7325,0.7324,0.7315,0.731,0.7305,0.7299,0.7297,0.729,0.7286,0.7279,0.7273,0.7269,0.7261,0.7252,0.7248,0.7244,0.7241,0.7241,0.7241,0.7242,0.7242,0.7234,0.7243,0.7243,0.7243,0.7243,0.7243,0,0.7339,0.7332,0.7328,0.7319,0.7315,0.7309,0.7302,0.7299,0.7294,0.7288,0.7283,0.7277,0.7272,0.7263,0.7257,0.7256,0.7253,0.7255,0.7255,0.7254,0.7245,0.7246,0.7257,0.7257,0.7257,0.7257,0.7257,0.7257,0.7345,0.7342,0.7336,0.733,0.7324,0.7319,0.7315,0.731,0.7305,0.7298,0.7293,0.7288,0.728,0.7273,0.7268,0.7266,0.7264,0.7266,0.7263,0.7256,0.7254,0.7253,0.7253,0.7266,0.7266,0.7271,0.7271,0.7271]},{"header":{"parameterUnit":"m.s-1","parameterCategory":1,"la1":30.2991,"la2":30.254,"lo1":-89.0895,"lo2":-89.0444,"dy":0.0017,"dx":0.0017,"nx":28,"ny":28,"refTime":"2023-08-31T21:00:00:Z","depth":0,"parameterNumber":3,"parameterNumberName":"V-component_of_WINDS"},"data":[0,0,0,0,0,0,0,0,0,0,0,0,0,0,0,0,0,0,0,0,0,0,0,0,0,0,0,0,0,0,0,0,0,0,0,0,0,0,0,0,0,0,0,0,0,0,0,0,0,0,0,0,0,0,0,0,0,0,0.7603,0.7604,0,0.7671,0.7671,0.7672,0.7704,0.7704,0.7704,0.7704,0.7773,0.7774,0.7776,0,0,0,0,0,0,0,0,0,0,0,0,0,0.75,0.7502,0.7603,0.7604,0.7605,0.7671,0.7672,0.7672,0.7704,0.7704,0.7704,0.7704,0.7772,0.7774,0.7776,0,0,0,0,0,0,0,0,0,0,0,0,0,0.7554,0.7503,0.7603,0.7629,0.7632,0.767,0.7672,0.7673,0.7704,0.7704,0.7704,0.7704,0.7771,0.7774,0.7777,0.7795,0,0,0.7785,0.7786,0,0,0,0,0,0,0,0,0.7551,0.7558,0.7624,0.7627,0.7631,0.7679,0.766,0.7713,0.7704,0.7677,0.7704,0.7704,0.7741,0.7747,0.7759,0.7798,0.7801,0.7785,0.7787,0.7788,0.7789,0,0,0,0,0,0,0,0.7547,0.7555,0.763,0.7625,0.7629,0.7636,0.7644,0.767,0.7709,0.7679,0.7682,0.7689,0.7743,0.7757,0.7761,0.7802,0.7785,0.7788,0.7789,0.779,0.7856,0.7856,0,0,0,0,0,0,0.7539,0.7552,0.7628,0.7632,0.759,0.7638,0.7647,0.7664,0.7708,0.7715,0.7689,0.7691,0.7752,0.7758,0.7764,0.7787,0.7788,0.7791,0.7792,0.7856,0.7856,0.7856,0,0,0,0,0,0,0.7537,0.7546,0.7625,0.7593,0.7603,0.764,0.7659,0.7665,0.7679,0.7716,0.7723,0.7696,0.7752,0.776,0.7786,0.779,0.7792,0.7795,0.7856,0.7856,0.7856,0.7834,0,0,0,0,0,0,0.7534,0.7545,0.7553,0.7593,0.7605,0.7647,0.7659,0.7666,0.7683,0.7686,0.7724,0.7731,0.7753,0.7782,0.7789,0.7794,0.7797,0.7856,0.7856,0.7856,0.7834,0.7833,0.7832,0,0,0,0,0,0.753,0.7544,0.7553,0.7562,0.7616,0.7647,0.7654,0.768,0.7683,0.7691,0.7715,0.7729,0.7788,0.7784,0.7793,0.7798,0.7856,0.7856,0.7856,0.7835,0.7833,0.7832,0,0,0,0,0,0,0.7505,0.755,0.756,0.7588,0.7613,0.7653,0.7664,0.7678,0.7703,0.7704,0.7734,0.7742,0.7766,0.7785,0.778,0.7817,0.7823,0.7825,0.7804,0.7803,0.7802,0.7797,0.7799,0,0,0,0,0,0.7502,0.7524,0.7563,0.7583,0.7595,0.7627,0.7642,0.7659,0.7687,0.7698,0.7724,0.775,0.7774,0.7789,0.7814,0.7837,0.7845,0.7844,0.7843,0.7842,0.7843,0.7856,0.7856,0.7857,0.7857,0.7857,0,0,0.7497,0.7524,0.7537,0.7578,0.76,0.7622,0.7636,0.7659,0.7675,0.7701,0.7728,0.7747,0.7778,0.7803,0.7815,0.7819,0.7844,0.7842,0.7841,0.7843,0.7856,0.7856,0.7856,0.7857,0.7857,0.7857,0,0,0.7499,0.7523,0.7542,0.7563,0.7595,0.7616,0.762,0.7657,0.7671,0.7698,0.7717,0.7737,0.7778,0.7799,0.7815,0.7822,0.7836,0.7829,0.7823,0.7835,0.7835,0.7835,0.7837,0.7838,0.783,0.783,0.783,0,0.7489,0.7524,0.7549,0.7571,0.7588,0.7611,0.763,0.7649,0.7688,0.7699,0.7703,0.7754,0.7777,0.7806,0.7807,0.782,0.7825,0.7825,0.7833,0.7833,0.7834,0.7836,0.7837,0.7829,0.7829,0.7829,0.7829,0,0.7509,0.7532,0.7543,0.758,0.7598,0.7618,0.7646,0.7661,0.7675,0.7695,0.7721,0.7749,0.7779,0.7786,0.7801,0.7817,0.7819,0.7827,0.7834,0.7832,0.7835,0.7836,0.7828,0.7828,0.7828,0.7828,0,0,0.75,0.7548,0.7552,0.7568,0.7604,0.7623,0.7643,0.7671,0.7683,0.7708,0.7726,0.7759,0.7767,0.7785,0.7802,0.7812,0.7815,0.7819,0.782,0.7817,0.7833,0.7827,0.7827,0.7823,0.7824,0.7824,0.783,0,0.7508,0.7545,0.7568,0.7596,0.7617,0.7638,0.7655,0.7679,0.7697,0.7717,0.7737,0.776,0.7768,0.7779,0.779,0.7812,0.7818,0.7812,0.7839,0.784,0.7832,0.7829,0.7823,0.7828,0.7831,0.7832,0.7832,0,0.7522,0.7546,0.7576,0.7608,0.7618,0.7633,0.766,0.7679,0.7706,0.7718,0.7737,0.7754,0.7775,0.7779,0.7808,0.7803,0.7815,0.7827,0.7828,0.7832,0.7836,0.7833,0.783,0.783,0.7834,0.7834,0.7834,0,0.7512,0.7552,0.7575,0.7588,0.7626,0.7636,0.7652,0.7678,0.7694,0.7717,0.7727,0.7752,0.7766,0.7785,0.7808,0.7809,0.7834,0.784,0.7845,0.7844,0.785,0.785,0.7849,0.7857,0.7857,0.7857,0.7857,0,0.7519,0.7537,0.757,0.7584,0.7604,0.7628,0.7647,0.7665,0.7688,0.7705,0.7724,0.774,0.7769,0.7788,0.7805,0.7826,0.7832,0.7842,0.7847,0.7841,0.784,0.785,0.7851,0.7857,0.7857,0.7857,0.7857,0,0.7512,0.7535,0.7561,0.7594,0.7603,0.7616,0.7644,0.7658,0.7676,0.7698,0.7704,0.7733,0.7756,0.778,0.7811,0.7823,0.7843,0.7849,0.7834,0.7837,0.784,0.7839,0.7846,0.7848,0.7854,0.7854,0.7854,0,0.7515,0.7529,0.7563,0.7576,0.7591,0.7612,0.7627,0.765,0.7665,0.7695,0.7705,0.7729,0.775,0.7786,0.7809,0.7833,0.784,0.784,0.7844,0.7837,0.784,0.7839,0.784,0.784,0.784,0.784,0.7839,0,0.7519,0.7529,0.755,0.7574,0.7591,0.7612,0.7633,0.7642,0.767,0.7685,0.7708,0.7724,0.7755,0.7779,0.7805,0.7821,0.7835,0.7838,0.784,0.7835,0.7826,0.783,0.7832,0.7838,0.7838,0.7838,0.7838,0.7838,0.7517,0.753,0.7555,0.7577,0.7595,0.7613,0.7628,0.7647,0.7667,0.7694,0.7706,0.7729,0.7753,0.779,0.7805,0.7823,0.7827,0.7831,0.7832,0.7832,0.7831,0.7822,0.7828,0.7828,0.7828,0.7828,0.7828,0,0.7521,0.7538,0.7558,0.7586,0.7603,0.7613,0.7636,0.7649,0.767,0.7691,0.771,0.7736,0.7759,0.7783,0.7806,0.7816,0.7823,0.7821,0.7821,0.7825,0.7826,0.7822,0.7816,0.7816,0.7816,0.7816,0.7816,0.7816,0.7526,0.7547,0.7559,0.7589,0.7606,0.7628,0.764,0.7657,0.7674,0.7702,0.7721,0.7736,0.7758,0.7783,0.7803,0.781,0.7818,0.7815,0.7823,0.7824,0.7825,0.7826,0.7822,0.7816,0.7816,0.782,0.7821,0.7821]}]]